When you browse on this site, cookies collect data to enhance your experience and personalize the content and advertising you see.
Visit our Privacy Policy to learn more. By continuing to use the site, you agree to this use of cookies and data.
  • In Romania
  • List of Countries
  • For 7 days
  • Water Temperature
  • Satellite Maps
  • Weather Map
  • Weather Widgets
  • user-avatar
    Login

    Hourly Weather Santa Fe

    Today, 25 March, Monday

    Time Temperature Precipitation Wind Pressure Humidity
    00:00 +18°C° 0 mm 3 mps 762 mmHg 48%
    01:00 +17°C° 0 mm 3 mps 762 mmHg 53%
    02:00 +16°C° 0 mm 2 mps 762 mmHg 57%
    03:00 +16°C° 0 mm 2 mps 762 mmHg 61%
    04:00 +15°C° 0 mm 2 mps 762 mmHg 64%
    05:00 +15°C° 0 mm 2 mps 762 mmHg 67%
    06:00 +16°C° 0 mm 3 mps 762 mmHg 63%
    07:00 +16°C° 0 mm 3 mps 763 mmHg 60%
    08:00 +17°C° 0 mm 3 mps 763 mmHg 56%
    09:00 +20°C° 0 mm 3 mps 763 mmHg 47%
    10:00 +22°C° 0 mm 3 mps 763 mmHg 38%
    11:00 +25°C° 0 mm 3 mps 763 mmHg 29%
    12:00 +26°C° 0 mm 3 mps 763 mmHg 27%
    13:00 +26°C° 0 mm 3 mps 762 mmHg 25%
    14:00 +27°C° 0 mm 3 mps 762 mmHg 23%
    15:00 +27°C° 0 mm 3 mps 762 mmHg 24%
    16:00 +26°C° 0 mm 3 mps 761 mmHg 24%
    17:00 +26°C° 0 mm 3 mps 761 mmHg 25%
    18:00 +25°C° 0 mm 3 mps 762 mmHg 27%
    19:00 +22°C° 0 mm 3 mps 762 mmHg 28%
    20:00 +21°C° 0 mm 2 mps 763 mmHg 30%
    21:00 +20°C° 0 mm 2 mps 763 mmHg 35%
    22:00 +18°C° 0 mm 2 mps 763 mmHg 39%
    23:00 +17°C° 0 mm 2 mps 764 mmHg 44%

    Tomorrow, 26 March, Tuesday

    Time Temperature Precipitation Wind Pressure Humidity
    00:00 +16°C° 0 mm 2 mps 764 mmHg 50%
    01:00 +16°C° 0 mm 2 mps 764 mmHg 56%
    02:00 +15°C° 0 mm 2 mps 764 mmHg 62%
    03:00 +14°C° 0 mm 2 mps 764 mmHg 67%
    04:00 +14°C° 0 mm 2 mps 764 mmHg 72%
    05:00 +13°C° 0 mm 2 mps 764 mmHg 77%
    06:00 +15°C° 0 mm 2 mps 765 mmHg 74%
    07:00 +16°C° 0 mm 3 mps 766 mmHg 71%
    08:00 +17°C° 0 mm 3 mps 766 mmHg 68%
    09:00 +19°C° 0 mm 3 mps 766 mmHg 59%
    10:00 +21°C° 0 mm 3 mps 766 mmHg 50%
    11:00 +25°C° 0 mm 3 mps 766 mmHg 40%
    12:00 +26°C° 0 mm 3 mps 765 mmHg 36%
    13:00 +27°C° 0 mm 3 mps 765 mmHg 32%
    14:00 +28°C° 0 mm 3 mps 764 mmHg 28%
    15:00 +28°C° 0 mm 3 mps 764 mmHg 28%
    16:00 +27°C° 0 mm 3 mps 764 mmHg 29%
    17:00 +27°C° 0 mm 3 mps 763 mmHg 29%
    18:00 +25°C° 0 mm 3 mps 764 mmHg 35%
    19:00 +22°C° 0 mm 3 mps 765 mmHg 41%
    20:00 +20°C° 0 mm 4 mps 765 mmHg 48%
    21:00 +19°C° 0 mm 3 mps 765 mmHg 53%
    22:00 +18°C° 0 mm 3 mps 766 mmHg 58%
    23:00 +17°C° 0 mm 3 mps 766 mmHg 64%

    Day after tomorrow, 27 March, Wednesday

    Time Temperature Precipitation Wind Pressure Humidity
    00:00 +17°C° 0 mm 3 mps 766 mmHg 66%
    01:00 +16°C° 0 mm 3 mps 766 mmHg 69%
    02:00 +15°C° 0 mm 2 mps 766 mmHg 72%
    03:00 +15°C° 0 mm 2 mps 766 mmHg 75%
    04:00 +15°C° 0 mm 2 mps 766 mmHg 78%
    05:00 +14°C° 0 mm 2 mps 766 mmHg 81%
    06:00 +14°C° 0 mm 3 mps 767 mmHg 76%
    07:00 +17°C° 0 mm 3 mps 767 mmHg 71%
    08:00 +18°C° 0 mm 3 mps 768 mmHg 66%
    09:00 +20°C° 0 mm 3 mps 768 mmHg 57%
    10:00 +24°C° 0 mm 3 mps 767 mmHg 47%
    11:00 +27°C° 0 mm 3 mps 767 mmHg 37%
    12:00 +28°C° 0 mm 3 mps 767 mmHg 35%
    13:00 +28°C° 0 mm 3 mps 766 mmHg 32%
    14:00 +29°C° 0 mm 3 mps 765 mmHg 29%
    15:00 +29°C° 0 mm 3 mps 765 mmHg 30%
    16:00 +29°C° 0 mm 3 mps 765 mmHg 31%
    17:00 +29°C° 0 mm 3 mps 764 mmHg 31%
    18:00 +27°C° 0 mm 3 mps 765 mmHg 37%
    19:00 +25°C° 0 mm 3 mps 765 mmHg 42%
    20:00 +22°C° 0 mm 4 mps 765 mmHg 47%
    21:00 +22°C° 0 mm 4 mps 766 mmHg 48%
    22:00 +22°C° 0 mm 4 mps 766 mmHg 50%
    23:00 +22°C° 0 mm 4 mps 766 mmHg 51%

    28 March, Thursday

    Time Temperature Precipitation Wind Pressure Humidity
    00:00 +21°C° 0 mm 4 mps 766 mmHg 53%
    01:00 +21°C° 0 mm 4 mps 766 mmHg 54%
    02:00 +20°C° 0 mm 4 mps 766 mmHg 55%
    03:00 +20°C° 0 mm 4 mps 765 mmHg 59%
    04:00 +20°C° 0 mm 4 mps 765 mmHg 62%
    05:00 +20°C° 0 mm 4 mps 765 mmHg 66%
    06:00 +20°C° 0 mm 4 mps 766 mmHg 66%
    07:00 +20°C° 0 mm 4 mps 766 mmHg 66%
    08:00 +21°C° 0 mm 4 mps 766 mmHg 66%
    09:00 +22°C° 0 mm 4 mps 766 mmHg 60%
    10:00 +23°C° 0 mm 4 mps 766 mmHg 55%
    11:00 +26°C° 0 mm 4 mps 766 mmHg 49%
    12:00 +28°C° 0 mm 4 mps 765 mmHg 42%
    13:00 +30°C° 0 mm 4 mps 764 mmHg 35%
    14:00 +33°C° 0 mm 4 mps 763 mmHg 28%
    15:00 +32°C° 0 mm 4 mps 763 mmHg 28%
    16:00 +32°C° 0 mm 4 mps 762 mmHg 28%
    17:00 +32°C° 0 mm 4 mps 762 mmHg 28%
    18:00 +29°C° 0 mm 3 mps 762 mmHg 32%
    19:00 +27°C° 0 mm 3 mps 762 mmHg 36%
    20:00 +26°C° 0 mm 3 mps 762 mmHg 40%
    21:00 +25°C° 0 mm 3 mps 762 mmHg 44%
    22:00 +24°C° 0 mm 3 mps 762 mmHg 49%
    23:00 +22°C° 0 mm 3 mps 762 mmHg 53%

    29 March, Friday

    Time Temperature Precipitation Wind Pressure Humidity
    00:00 +22°C° 0 mm 3 mps 761 mmHg 57%
    01:00 +23°C° 0 mm 2 mps 761 mmHg 60%
    02:00 +21°C° 0 mm 2 mps 761 mmHg 64%
    03:00 +22°C° 0 mm 3 mps 760 mmHg 64%
    04:00 +22°C° 0 mm 3 mps 760 mmHg 64%
    05:00 +24°C° 0 mm 3 mps 760 mmHg 64%
    06:00 +25°C° 0 mm 3 mps 760 mmHg 63%
    07:00 +25°C° 0 mm 4 mps 760 mmHg 61%
    08:00 +26°C° 0 mm 4 mps 760 mmHg 59%
    09:00 +28°C° 0 mm 4 mps 760 mmHg 54%
    10:00 +29°C° 0 mm 4 mps 759 mmHg 49%
    11:00 +32°C° 0 mm 4 mps 759 mmHg 44%
    12:00 +34°C° 0 mm 4 mps 758 mmHg 41%
    13:00 +35°C° 0 mm 3 mps 757 mmHg 37%
    14:00 +36°C° 0 mm 3 mps 756 mmHg 33%
    15:00 +35°C° 0 mm 3 mps 756 mmHg 36%
    16:00 +34°C° 0 mm 3 mps 755 mmHg 39%
    17:00 +33°C° 0 mm 3 mps 755 mmHg 42%
    18:00 +31°C° 0.1 mm 2 mps 755 mmHg 48%
    19:00 +29°C° 0.1 mm 2 mps 755 mmHg 54%
    20:00 +28°C° 0.1 mm 2 mps 756 mmHg 60%
    21:00 +27°C° 0 mm 3 mps 756 mmHg 61%
    22:00 +27°C° 0 mm 3 mps 756 mmHg 63%
    23:00 +26°C° 0 mm 4 mps 756 mmHg 64%

    30 March, Saturday

    Time Temperature Precipitation Wind Pressure Humidity
    00:00 +26°C° 0 mm 3 mps 755 mmHg 68%
    01:00 +26°C° 0 mm 3 mps 755 mmHg 72%
    02:00 +25°C° 0 mm 2 mps 755 mmHg 75%
    03:00 +25°C° 0.7 mm 3 mps 755 mmHg 81%
    04:00 +24°C° 0.7 mm 3 mps 755 mmHg 86%
    05:00 +22°C° 0.7 mm 3 mps 755 mmHg 91%
    06:00 +24°C° 0.3 mm 3 mps 756 mmHg 88%
    07:00 +25°C° 0.3 mm 3 mps 756 mmHg 85%
    08:00 +26°C° 0.3 mm 4 mps 756 mmHg 82%
    09:00 +28°C° 0.1 mm 4 mps 756 mmHg 72%
    10:00 +31°C° 0.1 mm 3 mps 756 mmHg 62%
    11:00 +34°C° 0.1 mm 3 mps 756 mmHg 52%
    12:00 +34°C° 0.4 mm 3 mps 756 mmHg 53%
    13:00 +34°C° 0.4 mm 2 mps 755 mmHg 53%
    14:00 +33°C° 0.4 mm 1 mps 754 mmHg 54%
    15:00 +34°C° 0 mm 2 mps 754 mmHg 52%
    16:00 +34°C° 0 mm 2 mps 754 mmHg 51%
    17:00 +35°C° 0 mm 2 mps 754 mmHg 49%
    18:00 +31°C° 1.4 mm 3 mps 755 mmHg 61%
    19:00 +28°C° 1.4 mm 3 mps 755 mmHg 74%
    20:00 +26°C° 1.4 mm 3 mps 756 mmHg 86%
    21:00 +25°C° 1.6 mm 3 mps 756 mmHg 88%
    22:00 +25°C° 1.6 mm 2 mps 757 mmHg 91%
    23:00 +24°C° 1.6 mm 1 mps 757 mmHg 94%
    Show more